Clemson, SC

7:47 AM EDT on July 22, 2017 (GMT -0400)
Oconee County Regional

Weather History for KCEU - October, 2012

Change the Weather History Date:

Saturday, October 6, 2012

  Actual Average Record
Temperature  
Mean Temperature 71 °F -  
Max Temperature 84 °F 78 °F 96 °F (1954)
Min Temperature 60 °F 49 °F 36 °F (1964)
Cooling Degree Days 6    
Growing Degree Days 21 (Base 50)    
Moisture  
Dew Point 58 °F    
Average Humidity 71    
Maximum Humidity 88    
Minimum Humidity 46    
Precipitation  
Precipitation 0.00 in - - ()
Sea Level Pressure  
Sea Level Pressure 29.97 in    
Wind  
Wind Speed 3 mph (WSW)    
Max Wind Speed 13 mph    
Max Gust Speed 17 mph    
Visibility 8 miles    
Events Fog    
Averages and records for this station are not official NWS values.
T = Trace of Precipitation, MM = Missing Value Source: NWS Daily Summary

Daily Weather History Graph

Daily Weather History Graph

Search for Another Location

Airport or City:

Trip Planner

Search our weather history database for the weather conditions in past years. The results will help you decide how hot, cold, wet, or windy it might be!

Date:

Astronomy

Oct. 06, 2012 Rise Set
Actual Time 7:30 AM EDT 7:08 PM EDT
Civil Twilight 7:05 AM EDT 7:33 PM EDT
Nautical Twilight 6:35 AM EDT 8:02 PM EDT
Astronomical Twilight 6:06 AM EDT 8:31 PM EDT
Moon 11:33 PM EDT (10/6) 1:13 PM EDT (10/6)
Length of Visible Light 12h 28m
Length of Day
11h 37m
Waning Gibbous, 65% of the Moon is Illuminated
Oct 6
Waning Gibbous
Oct 8
Last Quarter
Oct 15
New
Oct 21
First Quarter
Oct 29
Full

Hourly Weather History & Observations

Time (EDT) Temp. Heat Index Dew Point Humidity Pressure Visibility Wind Dir Wind Speed Gust Speed Precip Events Conditions
12:54 AM 64.0 °F - 60.1 °F 87% 30.04 in 7.0 mi South 3.5 mph - N/A   Clear
1:54 AM 63.0 °F - 57.9 °F 84% 30.03 in 8.0 mi West 3.5 mph - N/A   Clear
2:54 AM 64.0 °F - 59.0 °F 84% 30.01 in 8.0 mi Calm Calm - N/A   Clear
3:45 AM 62.6 °F - 57.2 °F 82% 30.01 in 2.5 mi Calm Calm - N/A   Partly Cloudy
3:49 AM 62.6 °F - 57.2 °F 82% 30.01 in 1.0 mi Calm Calm - N/A   Mist
3:52 AM 62.6 °F - 57.2 °F 82% 30.01 in 0.5 mi Calm Calm - N/A Fog Fog
3:54 AM 62.1 °F - 57.9 °F 86% 29.99 in 0.5 mi Calm Calm - N/A Fog Fog
4:05 AM 62.6 °F - 57.2 °F 82% 30.00 in 0.2 mi Calm Calm - N/A Fog Fog
4:18 AM 60.8 °F - 57.2 °F 88% 30.00 in 1.0 mi Calm Calm - N/A   Mist
4:22 AM 60.8 °F - 57.2 °F 88% 30.00 in 2.0 mi Calm Calm - N/A   Scattered Clouds
4:33 AM 60.8 °F - 57.2 °F 88% 29.99 in 5.0 mi Calm Calm - N/A   Partly Cloudy
4:54 AM 60.1 °F - 55.9 °F 86% 29.97 in 9.0 mi Calm Calm - N/A   Clear
5:54 AM 61.0 °F - 55.0 °F 81% 29.98 in 10.0 mi Calm Calm - N/A   Clear
6:54 AM 60.1 °F - 54.0 °F 80% 30.00 in 10.0 mi WSW 4.6 mph - N/A   Clear
7:54 AM 61.0 °F - 55.0 °F 81% 30.00 in 10.0 mi WSW 5.8 mph - N/A   Clear
8:54 AM 63.0 °F - 55.9 °F 78% 30.00 in 10.0 mi WSW 4.6 mph - N/A   Clear
9:54 AM 69.1 °F - 57.9 °F 68% 29.98 in 10.0 mi WSW 4.6 mph - N/A   Partly Cloudy
10:54 AM 75.9 °F - 60.1 °F 58% 29.97 in 10.0 mi SW 4.6 mph - N/A   Clear
11:54 AM 79.0 °F - 57.0 °F 47% 29.97 in 10.0 mi WSW 12.7 mph 17.3 mph N/A   Clear
12:54 PM 80.1 °F 80.6 °F 57.9 °F 47% 29.96 in 10.0 mi Variable 4.6 mph - N/A   Clear
1:54 PM 82.9 °F 83.2 °F 60.1 °F 46% 29.94 in 10.0 mi Variable 4.6 mph - N/A   Clear
2:54 PM 81.0 °F 81.6 °F 60.1 °F 49% 29.91 in 10.0 mi Variable 3.5 mph - N/A   Partly Cloudy
3:54 PM 82.9 °F 83.3 °F 61.0 °F 47% 29.89 in 10.0 mi WSW 4.6 mph - N/A   Scattered Clouds
4:54 PM 82.0 °F 82.7 °F 61.0 °F 49% 29.89 in 10.0 mi WSW 4.6 mph - N/A   Overcast
5:54 PM 81.0 °F 81.7 °F 61.0 °F 50% 29.90 in 10.0 mi West 4.6 mph - N/A   Clear
6:54 PM 78.1 °F - 62.1 °F 58% 29.92 in 10.0 mi WNW 4.6 mph - N/A   Mostly Cloudy
7:54 PM 73.9 °F - 62.1 °F 66% 29.94 in 10.0 mi WSW 4.6 mph - N/A   Scattered Clouds
8:54 PM 72.0 °F - 61.0 °F 68% 29.94 in 10.0 mi WSW 5.8 mph - N/A   Clear
9:54 PM 71.1 °F - 59.0 °F 66% 29.96 in 10.0 mi West 6.9 mph - N/A   Clear
10:54 PM 68.0 °F - 60.1 °F 76% 29.96 in 10.0 mi West 3.5 mph - N/A   Scattered Clouds
11:54 PM 66.9 °F - 59.0 °F 76% 29.97 in 10.0 mi West 5.8 mph - N/A   Partly Cloudy